When you browse on this site, cookies collect data to enhance your experience and personalize the content and advertising you see.
Visit our Privacy Policy to learn more. By continuing to use the site, you agree to this use of cookies and data.
  • In Hungary
  • List of Countries
  • For 7 days
  • Water Temperature
  • Weather Map
  • News
  • Weather Widgets
  • user-avatar
    Login

    Hourly Weather San Pédro

    Today, 12 December, Thursday

    Time Temperature Precipitation Wind Pressure Humidity
    00:00 +26°C° 0.4 mm 2 mps 749 mmHg 92%
    01:00 +25°C° 0.4 mm 2 mps 748 mmHg 92%
    02:00 +25°C° 0.4 mm 2 mps 748 mmHg 93%
    03:00 +25°C° 0.4 mm 2 mps 747 mmHg 93%
    04:00 +25°C° 0 mm 2 mps 747 mmHg 94%
    05:00 +25°C° 0 mm 2 mps 747 mmHg 94%
    06:00 +25°C° 0 mm 2 mps 748 mmHg 95%
    07:00 +26°C° 0 mm 2 mps 748 mmHg 90%
    08:00 +28°C° 0 mm 1 mps 749 mmHg 85%
    09:00 +29°C° 0 mm 1 mps 749 mmHg 80%
    10:00 +30°C° 0 mm 1 mps 749 mmHg 74%
    11:00 +31°C° 0 mm 1 mps 749 mmHg 69%
    12:00 +32°C° 0 mm 2 mps 748 mmHg 63%
    13:00 +32°C° 0.2 mm 2 mps 748 mmHg 64%
    14:00 +32°C° 0.2 mm 2 mps 747 mmHg 64%
    15:00 +31°C° 0.2 mm 2 mps 747 mmHg 65%
    16:00 +30°C° 0.2 mm 2 mps 747 mmHg 71%
    17:00 +29°C° 0.2 mm 2 mps 747 mmHg 77%
    18:00 +28°C° 0.2 mm 2 mps 747 mmHg 83%
    19:00 +27°C° 0 mm 2 mps 748 mmHg 85%
    20:00 +27°C° 0 mm 2 mps 748 mmHg 86%
    21:00 +26°C° 0 mm 3 mps 749 mmHg 88%
    22:00 +26°C° 0 mm 3 mps 749 mmHg 89%
    23:00 +26°C° 0 mm 3 mps 749 mmHg 91%

    Tomorrow, 13 December, Friday

    Time Temperature Precipitation Wind Pressure Humidity
    00:00 +26°C° 0 mm 3 mps 749 mmHg 92%
    01:00 +26°C° 0.1 mm 2 mps 748 mmHg 93%
    02:00 +26°C° 0.1 mm 2 mps 748 mmHg 94%
    03:00 +25°C° 0.1 mm 2 mps 748 mmHg 94%
    04:00 +25°C° 0.2 mm 2 mps 748 mmHg 95%
    05:00 +25°C° 0.2 mm 2 mps 748 mmHg 95%
    06:00 +25°C° 0.2 mm 2 mps 749 mmHg 95%
    07:00 +27°C° 0.1 mm 2 mps 749 mmHg 90%
    08:00 +28°C° 0.1 mm 2 mps 750 mmHg 85%
    09:00 +29°C° 0.1 mm 2 mps 750 mmHg 79%
    10:00 +30°C° 0.1 mm 2 mps 750 mmHg 74%
    11:00 +31°C° 0.1 mm 2 mps 749 mmHg 69%
    12:00 +32°C° 0.1 mm 2 mps 749 mmHg 64%
    13:00 +32°C° 0.3 mm 2 mps 749 mmHg 65%
    14:00 +31°C° 0.3 mm 2 mps 748 mmHg 66%
    15:00 +31°C° 0.3 mm 3 mps 747 mmHg 68%
    16:00 +30°C° 0.1 mm 2 mps 748 mmHg 72%
    17:00 +29°C° 0.1 mm 2 mps 748 mmHg 77%
    18:00 +28°C° 0.1 mm 2 mps 748 mmHg 81%
    19:00 +28°C° 0 mm 2 mps 749 mmHg 84%
    20:00 +27°C° 0 mm 2 mps 749 mmHg 86%
    21:00 +26°C° 0 mm 2 mps 750 mmHg 89%
    22:00 +26°C° 0 mm 2 mps 750 mmHg 90%
    23:00 +26°C° 0 mm 2 mps 749 mmHg 91%

    Day after tomorrow, 14 December, Saturday

    Time Temperature Precipitation Wind Pressure Humidity
    00:00 +26°C° 0 mm 2 mps 749 mmHg 91%
    01:00 +26°C° 0.1 mm 2 mps 749 mmHg 92%
    02:00 +26°C° 0.1 mm 2 mps 748 mmHg 92%
    03:00 +26°C° 0.1 mm 2 mps 748 mmHg 92%
    04:00 +25°C° 0.8 mm 2 mps 748 mmHg 93%
    05:00 +25°C° 0.8 mm 2 mps 748 mmHg 93%
    06:00 +25°C° 0.8 mm 2 mps 749 mmHg 94%
    07:00 +27°C° 0.2 mm 2 mps 749 mmHg 88%
    08:00 +28°C° 0.2 mm 2 mps 749 mmHg 83%
    09:00 +29°C° 0.2 mm 3 mps 749 mmHg 77%
    10:00 +30°C° 0 mm 3 mps 749 mmHg 71%
    11:00 +31°C° 0 mm 3 mps 749 mmHg 65%
    12:00 +33°C° 0 mm 3 mps 749 mmHg 59%
    13:00 +33°C° 0.3 mm 3 mps 748 mmHg 61%
    14:00 +33°C° 0.3 mm 3 mps 748 mmHg 64%
    15:00 +31°C° 0.3 mm 3 mps 747 mmHg 66%
    16:00 +30°C° 0 mm 3 mps 748 mmHg 70%
    17:00 +29°C° 0 mm 2 mps 748 mmHg 75%
    18:00 +28°C° 0 mm 2 mps 748 mmHg 79%
    19:00 +28°C° 0.1 mm 2 mps 749 mmHg 81%
    20:00 +27°C° 0.1 mm 2 mps 749 mmHg 83%
    21:00 +27°C° 0.1 mm 2 mps 750 mmHg 86%
    22:00 +26°C° 0.3 mm 2 mps 749 mmHg 87%
    23:00 +26°C° 0.3 mm 2 mps 749 mmHg 89%

    15 December, Sunday

    Time Temperature Precipitation Wind Pressure Humidity
    00:00 +26°C° 0.3 mm 2 mps 749 mmHg 91%
    01:00 +26°C° 0.5 mm 2 mps 748 mmHg 92%
    02:00 +26°C° 0.5 mm 2 mps 748 mmHg 92%
    03:00 +25°C° 0.5 mm 2 mps 747 mmHg 93%
    04:00 +25°C° 0 mm 2 mps 748 mmHg 93%
    05:00 +25°C° 0 mm 2 mps 748 mmHg 93%
    06:00 +25°C° 0 mm 1 mps 748 mmHg 93%
    07:00 +27°C° 0 mm 1 mps 748 mmHg 88%
    08:00 +28°C° 0 mm 1 mps 749 mmHg 82%
    09:00 +30°C° 0 mm 1 mps 749 mmHg 77%
    10:00 +31°C° 0 mm 1 mps 749 mmHg 71%
    11:00 +31°C° 0 mm 1 mps 749 mmHg 66%
    12:00 +32°C° 0 mm 2 mps 748 mmHg 61%
    13:00 +32°C° 0.2 mm 2 mps 748 mmHg 63%
    14:00 +32°C° 0.2 mm 2 mps 747 mmHg 64%
    15:00 +31°C° 0.2 mm 2 mps 747 mmHg 66%
    16:00 +30°C° 0.2 mm 2 mps 747 mmHg 70%
    17:00 +29°C° 0.2 mm 2 mps 747 mmHg 75%
    18:00 +28°C° 0.2 mm 2 mps 747 mmHg 80%
    19:00 +28°C° 0 mm 2 mps 747 mmHg 82%
    20:00 +27°C° 0 mm 2 mps 748 mmHg 84%
    21:00 +27°C° 0 mm 2 mps 748 mmHg 86%
    22:00 +27°C° 0 mm 2 mps 748 mmHg 87%
    23:00 +26°C° 0 mm 3 mps 748 mmHg 88%

    16 December, Monday

    Time Temperature Precipitation Wind Pressure Humidity
    00:00 +26°C° 0 mm 3 mps 748 mmHg 89%
    01:00 +26°C° 0 mm 2 mps 747 mmHg 90%
    02:00 +26°C° 0 mm 2 mps 747 mmHg 91%
    03:00 +26°C° 0 mm 2 mps 746 mmHg 92%
    04:00 +26°C° 0 mm 2 mps 747 mmHg 92%
    05:00 +26°C° 0 mm 2 mps 747 mmHg 93%
    06:00 +25°C° 0 mm 2 mps 747 mmHg 93%
    07:00 +27°C° 0 mm 2 mps 747 mmHg 87%
    08:00 +28°C° 0 mm 2 mps 748 mmHg 81%
    09:00 +30°C° 0 mm 1 mps 748 mmHg 74%
    10:00 +30°C° 0.1 mm 1 mps 748 mmHg 72%
    11:00 +31°C° 0.1 mm 1 mps 748 mmHg 70%
    12:00 +31°C° 0.1 mm 1 mps 747 mmHg 68%
    13:00 +31°C° 0.3 mm 2 mps 747 mmHg 68%
    14:00 +31°C° 0.3 mm 2 mps 746 mmHg 68%
    15:00 +31°C° 0.3 mm 3 mps 746 mmHg 68%
    16:00 +30°C° 0.2 mm 3 mps 746 mmHg 73%
    17:00 +29°C° 0.2 mm 2 mps 746 mmHg 79%
    18:00 +28°C° 0.2 mm 2 mps 746 mmHg 84%
    19:00 +27°C° 0 mm 2 mps 747 mmHg 86%
    20:00 +27°C° 0 mm 2 mps 747 mmHg 88%
    21:00 +26°C° 0 mm 2 mps 748 mmHg 89%
    22:00 +26°C° 0 mm 2 mps 748 mmHg 90%
    23:00 +26°C° 0 mm 2 mps 747 mmHg 91%

    17 December, Tuesday

    Time Temperature Precipitation Wind Pressure Humidity
    00:00 +26°C° 0 mm 2 mps 747 mmHg 91%
    01:00 +25°C° 0.6 mm 2 mps 747 mmHg 93%
    02:00 +25°C° 0.6 mm 2 mps 747 mmHg 95%
    03:00 +25°C° 0.6 mm 2 mps 746 mmHg 96%
    04:00 +25°C° 0.6 mm 2 mps 746 mmHg 96%
    05:00 +24°C° 0.6 mm 2 mps 747 mmHg 96%
    06:00 +24°C° 0.6 mm 2 mps 747 mmHg 96%
    07:00 +26°C° 0 mm 2 mps 747 mmHg 90%
    08:00 +27°C° 0 mm 2 mps 748 mmHg 84%
    09:00 +29°C° 0 mm 2 mps 748 mmHg 78%
    10:00 +30°C° 0 mm 2 mps 748 mmHg 70%
    11:00 +32°C° 0 mm 2 mps 748 mmHg 62%
    12:00 +35°C° 0 mm 2 mps 748 mmHg 54%
    13:00 +34°C° 0.1 mm 2 mps 747 mmHg 57%
    14:00 +32°C° 0.1 mm 2 mps 747 mmHg 59%
    15:00 +33°C° 0.1 mm 3 mps 746 mmHg 62%
    16:00 +31°C° 0.1 mm 3 mps 746 mmHg 67%
    17:00 +30°C° 0.1 mm 3 mps 746 mmHg 73%
    18:00 +28°C° 0.1 mm 2 mps 746 mmHg 79%
    19:00 +28°C° 0 mm 3 mps 747 mmHg 82%
    20:00 +27°C° 0 mm 3 mps 747 mmHg 84%
    21:00 +27°C° 0 mm 3 mps 748 mmHg 87%
    22:00 +26°C° 0 mm 3 mps 748 mmHg 89%
    23:00 +26°C° 0 mm 3 mps 748 mmHg 90%
    Show more